• In Hungary
  • List of Countries
  • For 7 days
  • Water Temperature
  • Satellite Maps
  • Weather Map
  • News
  • Weather Widgets
  • user-avatar
    Login

    Hourly Weather Toledo

    Today, 13 December, Wednesday

    Time Temperature Precipitation Wind Pressure Humidity
    00:00 -12°C° 0 mm 4 mps 742 mmHg 80%
    01:00 -12°C° 0 mm 4 mps 742 mmHg 81%
    02:00 -12°C° 0 mm 4 mps 741 mmHg 82%
    03:00 -12°C° 0 mm 4 mps 741 mmHg 84%
    04:00 -11°C° 0 mm 4 mps 741 mmHg 83%
    05:00 -11°C° 0 mm 4 mps 741 mmHg 83%
    06:00 -11°C° 0 mm 4 mps 741 mmHg 82%
    07:00 -10°C° 0.1 mm 4 mps 740 mmHg 81%
    08:00 -10°C° 0.1 mm 4 mps 740 mmHg 79%
    09:00 -11°C° 0.1 mm 5 mps 740 mmHg 78%
    10:00 -10°C° 0.8 mm 5 mps 738 mmHg 82%
    11:00 -10°C° 0.8 mm 5 mps 737 mmHg 86%
    12:00 -10°C° 0.8 mm 5 mps 736 mmHg 90%
    13:00 -8°C° 0.4 mm 5 mps 735 mmHg 87%
    14:00 -7°C° 0.4 mm 4 mps 734 mmHg 85%
    15:00 -5°C° 0.4 mm 4 mps 734 mmHg 82%
    16:00 -5°C° 0.6 mm 3 mps 733 mmHg 86%
    17:00 -5°C° 0.6 mm 3 mps 732 mmHg 90%
    18:00 -5°C° 0.6 mm 3 mps 732 mmHg 94%
    19:00 -5°C° 0.2 mm 4 mps 732 mmHg 94%
    20:00 -5°C° 0.2 mm 4 mps 732 mmHg 94%
    21:00 -6°C° 0.2 mm 5 mps 733 mmHg 94%
    22:00 -7°C° 0.1 mm 5 mps 734 mmHg 93%
    23:00 -9°C° 0.1 mm 6 mps 735 mmHg 91%

    Tomorrow, 14 December, Thursday

    Time Temperature Precipitation Wind Pressure Humidity
    00:00 -11°C° 0.1 mm 7 mps 736 mmHg 89%
    01:00 -11°C° 0 mm 6 mps 737 mmHg 89%
    02:00 -12°C° 0 mm 6 mps 738 mmHg 89%
    03:00 -13°C° 0 mm 5 mps 739 mmHg 89%
    04:00 -13°C° 0 mm 5 mps 740 mmHg 89%
    05:00 -14°C° 0 mm 4 mps 741 mmHg 89%
    06:00 -15°C° 0 mm 4 mps 742 mmHg 90%
    07:00 -15°C° 0 mm 4 mps 743 mmHg 89%
    08:00 -15°C° 0 mm 4 mps 744 mmHg 87%
    09:00 -14°C° 0 mm 3 mps 745 mmHg 86%
    10:00 -13°C° 0 mm 3 mps 745 mmHg 83%
    11:00 -12°C° 0 mm 3 mps 745 mmHg 79%
    12:00 -10°C° 0 mm 3 mps 745 mmHg 75%
    13:00 -9°C° 0 mm 2 mps 745 mmHg 76%
    14:00 -9°C° 0 mm 2 mps 745 mmHg 77%
    15:00 -9°C° 0 mm 2 mps 746 mmHg 78%
    16:00 -10°C° 0 mm 2 mps 746 mmHg 79%
    17:00 -10°C° 0 mm 2 mps 747 mmHg 81%
    18:00 -12°C° 0 mm 2 mps 747 mmHg 82%
    19:00 -12°C° 0 mm 2 mps 747 mmHg 83%
    20:00 -12°C° 0 mm 2 mps 747 mmHg 83%
    21:00 -12°C° 0 mm 2 mps 748 mmHg 84%
    22:00 -12°C° 0 mm 2 mps 747 mmHg 84%
    23:00 -12°C° 0 mm 2 mps 747 mmHg 83%

    Day after tomorrow, 15 December, Friday

    Time Temperature Precipitation Wind Pressure Humidity
    00:00 -12°C° 0 mm 2 mps 747 mmHg 83%
    01:00 -12°C° 0 mm 2 mps 747 mmHg 84%
    02:00 -12°C° 0 mm 3 mps 746 mmHg 84%
    03:00 -12°C° 0 mm 3 mps 746 mmHg 85%
    04:00 -10°C° 0.1 mm 3 mps 745 mmHg 86%
    05:00 -11°C° 0.1 mm 4 mps 745 mmHg 86%
    06:00 -10°C° 0.1 mm 4 mps 744 mmHg 87%
    07:00 -10°C° 0.2 mm 5 mps 744 mmHg 87%
    08:00 -9°C° 0.2 mm 6 mps 744 mmHg 88%
    09:00 -8°C° 0.2 mm 7 mps 743 mmHg 88%
    10:00 -7°C° 0.1 mm 7 mps 742 mmHg 86%
    11:00 -7°C° 0.1 mm 8 mps 742 mmHg 84%
    12:00 -6°C° 0.1 mm 8 mps 741 mmHg 82%
    13:00 -6°C° 0.1 mm 8 mps 741 mmHg 83%
    14:00 -7°C° 0.1 mm 7 mps 740 mmHg 83%
    15:00 -7°C° 0.1 mm 7 mps 740 mmHg 84%
    16:00 -7°C° 0.1 mm 7 mps 741 mmHg 83%
    17:00 -8°C° 0.1 mm 7 mps 741 mmHg 82%
    18:00 -10°C° 0.1 mm 8 mps 742 mmHg 81%
    19:00 -9°C° 0 mm 7 mps 742 mmHg 82%
    20:00 -10°C° 0 mm 6 mps 742 mmHg 84%
    21:00 -10°C° 0 mm 6 mps 742 mmHg 86%
    22:00 -10°C° 0.1 mm 6 mps 743 mmHg 86%
    23:00 -9°C° 0.1 mm 6 mps 743 mmHg 86%

    16 December, Saturday

    Time Temperature Precipitation Wind Pressure Humidity
    00:00 -8°C° 0.1 mm 6 mps 743 mmHg 86%
    01:00 -9°C° 0.1 mm 6 mps 743 mmHg 87%
    02:00 -8°C° 0.1 mm 5 mps 744 mmHg 88%
    03:00 -8°C° 0.1 mm 4 mps 744 mmHg 89%
    04:00 -9°C° 0 mm 4 mps 745 mmHg 89%
    05:00 -9°C° 0 mm 3 mps 746 mmHg 89%
    06:00 -8°C° 0 mm 2 mps 746 mmHg 89%
    07:00 -8°C° 0 mm 2 mps 747 mmHg 87%
    08:00 -6°C° 0 mm 1 mps 748 mmHg 85%
    09:00 -4°C° 0 mm 1 mps 748 mmHg 83%
    10:00 -5°C° 0 mm 2 mps 748 mmHg 84%
    11:00 -4°C° 0 mm 2 mps 748 mmHg 86%
    12:00 -4°C° 0 mm 3 mps 747 mmHg 87%
    13:00 -3°C° 0 mm 4 mps 747 mmHg 87%
    14:00 -3°C° 0 mm 4 mps 746 mmHg 87%
    15:00 -2°C° 0 mm 5 mps 746 mmHg 88%
    16:00 -2°C° 0 mm 5 mps 746 mmHg 87%
    17:00 -2°C° 0 mm 5 mps 746 mmHg 86%
    18:00 -2°C° 0 mm 5 mps 746 mmHg 85%
    19:00 -2°C° 0 mm 5 mps 746 mmHg 85%
    20:00 -2°C° 0 mm 5 mps 746 mmHg 85%
    21:00 -2°C° 0 mm 5 mps 746 mmHg 84%
    22:00 -3°C° 0 mm 6 mps 746 mmHg 84%
    23:00 -3°C° 0 mm 6 mps 746 mmHg 83%

    17 December, Sunday

    Time Temperature Precipitation Wind Pressure Humidity
    00:00 -3°C° 0 mm 6 mps 746 mmHg 82%
    01:00 -3°C° 0 mm 6 mps 747 mmHg 84%
    02:00 -3°C° 0 mm 6 mps 747 mmHg 85%
    03:00 -3°C° 0 mm 6 mps 747 mmHg 86%
    04:00 -3°C° 0 mm 6 mps 747 mmHg 87%
    05:00 -3°C° 0 mm 6 mps 747 mmHg 88%
    06:00 -2°C° 0 mm 5 mps 747 mmHg 90%
    07:00 -1°C° 0 mm 5 mps 747 mmHg 91%
    08:00 -1°C° 0 mm 5 mps 747 mmHg 91%
    09:00 -1°C° 0 mm 5 mps 747 mmHg 92%
    10:00 0°C° 0 mm 5 mps 747 mmHg 93%
    11:00 -1°C° 0 mm 6 mps 747 mmHg 94%
    12:00 -1°C° 0 mm 7 mps 747 mmHg 95%
    13:00 -1°C° 0 mm 6 mps 747 mmHg 95%
    14:00 0°C° 0 mm 5 mps 746 mmHg 95%
    15:00 0°C° 0 mm 4 mps 746 mmHg 95%
    16:00 0°C° 0 mm 4 mps 746 mmHg 94%
    17:00 -1°C° 0 mm 4 mps 747 mmHg 93%
    18:00 -1°C° 0 mm 4 mps 747 mmHg 92%
    19:00 -2°C° 0 mm 4 mps 747 mmHg 93%
    20:00 -2°C° 0 mm 4 mps 747 mmHg 93%
    21:00 -3°C° 0 mm 4 mps 748 mmHg 93%
    22:00 -3°C° 0 mm 4 mps 748 mmHg 93%
    23:00 -2°C° 0 mm 3 mps 748 mmHg 93%

    18 December, Monday

    Time Temperature Precipitation Wind Pressure Humidity
    00:00 -4°C° 0 mm 3 mps 748 mmHg 93%
    01:00 -4°C° 0 mm 3 mps 748 mmHg 93%
    02:00 -4°C° 0 mm 3 mps 748 mmHg 93%
    03:00 -4°C° 0 mm 3 mps 748 mmHg 93%
    04:00 -4°C° 0 mm 3 mps 748 mmHg 93%
    05:00 -4°C° 0 mm 3 mps 749 mmHg 93%
    06:00 -5°C° 0 mm 3 mps 749 mmHg 93%
    07:00 -4°C° 0 mm 3 mps 749 mmHg 91%
    08:00 -2°C° 0 mm 3 mps 749 mmHg 90%
    09:00 -2°C° 0 mm 4 mps 750 mmHg 88%
    10:00 -2°C° 0 mm 4 mps 749 mmHg 88%
    11:00 -1°C° 0 mm 4 mps 749 mmHg 87%
    12:00 0°C° 0 mm 4 mps 748 mmHg 87%
    13:00 0°C° 0 mm 4 mps 748 mmHg 86%
    14:00 0°C° 0 mm 4 mps 747 mmHg 85%
    15:00 0°C° 0 mm 4 mps 747 mmHg 83%
    16:00 -1°C° 0 mm 4 mps 747 mmHg 84%
    17:00 -1°C° 0 mm 4 mps 747 mmHg 85%
    18:00 -2°C° 0 mm 4 mps 747 mmHg 86%
    19:00 -2°C° 0 mm 5 mps 747 mmHg 85%
    20:00 -2°C° 0 mm 5 mps 747 mmHg 85%
    21:00 -2°C° 0 mm 5 mps 747 mmHg 85%
    22:00 -2°C° 0 mm 5 mps 746 mmHg 85%
    23:00 -2°C° 0 mm 5 mps 746 mmHg 84%
    Show more